Location: Unspecified
(22.6800°N, 112.2000°E)
Time: 08:35:57
(UTC+08:00)

Courier 1B Rocket - Pass Details

Date: 05 August 2021
Orbit: 920 x 1202 km, 28.3° (Epoch: 22 September)

Event Time Altitude Azimuth Distance (km) Brightness Sun altitude
Rises 05:37:12 0° 287° (WNW) 3,664 7.5 -6.7°
Reaches altitude 10° 05:39:55 10° 285° (WNW) 2,682 6.8 -6.1°
Maximum altitude 05:46:18 70° 203° (SSW) 982 5.0 -4.7°
Drops below altitude 10° 05:52:29 10° 120° (ESE) 2,600 7.9 -3.4°
Sets 05:55:05 0° 118° (ESE) 3,544 8.6 -2.8°
